Tracking 23582 objects as of 31-Jul-2021
HD Live streaming from Space Station
objects crossing your sky now

SL-12 R/B(2)

Track SL-12 R/B(2) now!


NORAD ID: 28240
Int'l Code: 2004-015D
Perigee: 35,603.9 km
Apogee: 35,737.4 km
Inclination: 11.8 °
Period: 1,429.8 minutes
Semi major axis: 42041 km
RCS: 1.2715 m2 (large)
Launch date: April 26, 2004
Source: Commonwealth of Independent States (former USSR) (CIS)
Launch site: TYURATAM MISSILE AND SPACE COMPLEX (TTMTR)

Note: This is a ROCKET BODY
aabbcc
Your satellite tracking list
Your tracking list is empty




NASA's NSSDC Master Catalog

Two Line Element Set (TLE):
1 28240U 04015D   21211.70146399  .00000119  00000-0  00000-0 0  9993
2 28240  11.7842  26.7737 0015877 302.8103 254.8722  1.00712373 63450
Source of the keplerian elements: AFSPC